[[{"header":{"parameterUnit":"m.s-1","parameterCategory":1,"la1":30.2991,"la2":30.254,"lo1":-89.0895,"lo2":-89.0444,"dy":0.0017,"dx":0.0017,"nx":28,"ny":28,"refTime":"2024-07-25T03:00:00:Z","depth":0,"parameterNumber":2,"parameterNumberName":"U-component_of_WINDS"},"data":[0,0,0,0,0,0,0,0,0,0,0,0,0,0,0,0,0,0,0,0,0,0,0,0,0,0,0,0,0,0,0,0,0,0,0,0,0,0,0,0,0,0,0,0,0,0,0,0,0,0,0,0,0,0,0,0,0,0,-2.2788,-2.2787,0,-2.2709,-2.2708,-2.2707,-2.2547,-2.2544,-2.254,-2.2537,-2.2461,-2.2462,-2.2463,0,0,0,0,0,0,0,0,0,0,0,0,0,-2.2805,-2.2806,-2.2788,-2.2787,-2.2786,-2.2709,-2.2708,-2.2707,-2.2547,-2.2543,-2.2539,-2.2536,-2.2461,-2.2462,-2.2463,0,0,0,0,0,0,0,0,0,0,0,0,0,-2.277,-2.2806,-2.2788,-2.2697,-2.2688,-2.271,-2.2708,-2.2707,-2.2548,-2.2543,-2.2538,-2.2534,-2.2461,-2.2462,-2.2463,-2.2569,0,0,-2.2468,-2.2469,0,0,0,0,0,0,0,0,-2.2772,-2.2769,-2.2711,-2.2703,-2.2693,-2.2633,-2.2686,-2.2661,-2.2549,-2.2601,-2.2537,-2.2532,-2.2523,-2.2519,-2.2515,-2.2565,-2.2562,-2.2468,-2.2469,-2.247,-2.247,0,0,0,0,0,0,0,-2.2775,-2.2772,-2.2757,-2.2711,-2.27,-2.2662,-2.2651,-2.2681,-2.259,-2.2597,-2.2585,-2.2577,-2.2517,-2.2514,-2.2512,-2.2561,-2.2468,-2.2469,-2.247,-2.2471,-2.2694,-2.2699,0,0,0,0,0,0,-2.279,-2.2775,-2.2759,-2.2755,-2.2721,-2.2665,-2.2654,-2.2657,-2.2589,-2.2574,-2.2581,-2.257,-2.2513,-2.251,-2.2508,-2.2626,-2.247,-2.2471,-2.2472,-2.2689,-2.2695,-2.2701,0,0,0,0,0,0,-2.2791,-2.279,-2.2763,-2.2761,-2.2755,-2.267,-2.2675,-2.2658,-2.2654,-2.2578,-2.2561,-2.2594,-2.2509,-2.2506,-2.2555,-2.2621,-2.2472,-2.2473,-2.2683,-2.2691,-2.2698,-2.2863,0,0,0,0,0,0,-2.2792,-2.2791,-2.2829,-2.2763,-2.2756,-2.2809,-2.268,-2.266,-2.2657,-2.2641,-2.2586,-2.2572,-2.2505,-2.2553,-2.2556,-2.262,-2.2474,-2.2677,-2.2687,-2.2696,-2.2852,-2.2876,-2.2896,0,0,0,0,0,-2.2793,-2.288,-2.2832,-2.2831,-2.2801,-2.2813,-2.2809,-2.2729,-2.2663,-2.2701,-2.2652,-2.2574,-2.2614,-2.256,-2.2561,-2.2627,-2.2672,-2.2684,-2.2695,-2.2842,-2.2871,-2.2896,0,0,0,0,0,0,-2.2957,-2.2869,-2.2815,-2.2883,-2.2857,-2.2786,-2.2831,-2.2763,-2.2756,-2.2742,-2.2645,-2.2634,-2.2695,-2.2666,-2.2607,-2.2726,-2.2631,-2.2643,-2.2742,-2.2769,-2.2791,-2.2796,-2.2475,0,0,0,0,0,-2.3,-2.3016,-2.294,-2.3007,-2.2997,-2.2917,-2.2919,-2.286,-2.283,-2.2818,-2.2772,-2.2747,-2.2754,-2.276,-2.2762,-2.2848,-2.2833,-2.2894,-2.2917,-2.2935,-2.2946,-2.2989,-2.3015,-2.2738,-2.2738,-2.2738,0,0,-2.3091,-2.3046,-2.3062,-2.3039,-2.3011,-2.3031,-2.2909,-2.2935,-2.2948,-2.2823,-2.2864,-2.2831,-2.2796,-2.2863,-2.2891,-2.2841,-2.302,-2.295,-2.2965,-2.2966,-2.3003,-2.3029,-2.3053,-2.2746,-2.2744,-2.2743,0,0,-2.3266,-2.3234,-2.3285,-2.326,-2.322,-2.3167,-2.318,-2.312,-2.3092,-2.3132,-2.3038,-2.3055,-2.3069,-2.3047,-2.3039,-2.3208,-2.3135,-2.3212,-2.3328,-2.337,-2.3392,-2.3411,-2.347,-2.3492,-2.3224,-2.3224,-2.3224,0,-2.3384,-2.3407,-2.3321,-2.3352,-2.3345,-2.3232,-2.3284,-2.3265,-2.3229,-2.3227,-2.3173,-2.3187,-2.3156,-2.3216,-2.3258,-2.3255,-2.3267,-2.3216,-2.3396,-2.3414,-2.343,-2.3485,-2.3507,-2.3233,-2.3232,-2.3231,-2.3231,0,-2.3554,-2.3573,-2.362,-2.3585,-2.3584,-2.3627,-2.3548,-2.3558,-2.35,-2.3453,-2.3497,-2.3456,-2.3447,-2.3458,-2.3402,-2.3511,-2.3481,-2.3413,-2.3315,-2.3467,-2.3517,-2.3537,-2.3247,-2.3244,-2.3241,-2.3238,0,0,-2.3826,-2.3745,-2.3763,-2.3746,-2.3694,-2.3708,-2.3746,-2.3736,-2.3746,-2.3726,-2.3755,-2.3771,-2.3707,-2.3698,-2.3639,-2.3677,-2.3812,-2.3604,-2.3601,-2.3642,-2.3928,-2.3977,-2.4003,-2.3765,-2.3769,-2.3772,-2.393,0,-2.3987,-2.4044,-2.3969,-2.4044,-2.406,-2.3954,-2.3987,-2.396,-2.3919,-2.3927,-2.3882,-2.3893,-2.381,-2.3803,-2.3836,-2.3789,-2.3868,-2.3777,-2.3791,-2.3793,-2.38,-2.4029,-2.4081,-2.4232,-2.3949,-2.3952,-2.3955,0,-2.4181,-2.4169,-2.4245,-2.4188,-2.4192,-2.4223,-2.4208,-2.4219,-2.4187,-2.4154,-2.4144,-2.4074,-2.4109,-2.4017,-2.4063,-2.4003,-2.4005,-2.3984,-2.3988,-2.3983,-2.3881,-2.4029,-2.4278,-2.43,-2.3985,-2.3983,-2.398,0,-2.4369,-2.4372,-2.4417,-2.4407,-2.4343,-2.4367,-2.4342,-2.4305,-2.4305,-2.4293,-2.4291,-2.4286,-2.4282,-2.4279,-2.421,-2.4149,-2.4265,-2.4167,-2.4238,-2.424,-2.4265,-2.4264,-2.4516,-2.4272,-2.4271,-2.4271,-2.4271,0,-2.4555,-2.4605,-2.4501,-2.4529,-2.4582,-2.4497,-2.4553,-2.4517,-2.4486,-2.4506,-2.4416,-2.4437,-2.4346,-2.4358,-2.4305,-2.4351,-2.4351,-2.4326,-2.431,-2.4332,-2.4335,-2.4329,-2.4316,-2.4277,-2.4276,-2.4274,-2.4273,0,-2.4772,-2.4704,-2.4746,-2.4683,-2.4668,-2.4711,-2.4657,-2.4681,-2.4635,-2.4661,-2.4663,-2.459,-2.46,-2.4531,-2.4529,-2.4493,-2.4564,-2.4532,-2.4574,-2.4563,-2.4637,-2.463,-2.4892,-2.4922,-2.4663,-2.4665,-2.4667,0,-2.4892,-2.4928,-2.4869,-2.4875,-2.4854,-2.4866,-2.4864,-2.4783,-2.4786,-2.4753,-2.4781,-2.4784,-2.478,-2.4801,-2.4748,-2.4746,-2.4712,-2.4804,-2.4711,-2.4731,-2.4711,-2.4708,-2.4711,-2.4823,-2.4826,-2.4829,-2.4831,0,-2.5113,-2.5079,-2.5079,-2.5069,-2.5069,-2.5058,-2.504,-2.5052,-2.4963,-2.4971,-2.4979,-2.4977,-2.4974,-2.4977,-2.4965,-2.494,-2.4871,-2.4861,-2.4877,-2.4898,-2.4919,-2.4906,-2.4624,-2.4855,-2.4852,-2.485,-2.4849,-2.4848,-2.5284,-2.531,-2.5273,-2.5277,-2.5255,-2.5242,-2.526,-2.5217,-2.5221,-2.5211,-2.5164,-2.5181,-2.515,-2.5126,-2.5108,-2.5121,-2.5077,-2.5101,-2.5106,-2.5112,-2.5124,-2.4921,-2.5119,-2.5118,-2.5118,-2.5117,-2.5116,0,-2.5497,-2.5469,-2.5473,-2.5451,-2.5455,-2.539,-2.5368,-2.5376,-2.5391,-2.5367,-2.5366,-2.5376,-2.5379,-2.5328,-2.5325,-2.5345,-2.5313,-2.5347,-2.5343,-2.5338,-2.5165,-2.5151,-2.5372,-2.5372,-2.5372,-2.5372,-2.5372,-2.5372,-2.5609,-2.565,-2.5612,-2.5643,-2.5613,-2.5628,-2.5621,-2.5608,-2.5588,-2.5603,-2.5604,-2.5571,-2.5537,-2.5531,-2.5531,-2.5516,-2.5518,-2.5562,-2.5537,-2.5376,-2.5351,-2.5327,-2.5312,-2.5564,-2.5565,-2.5708,-2.5709,-2.571]},{"header":{"parameterUnit":"m.s-1","parameterCategory":1,"la1":30.2991,"la2":30.254,"lo1":-89.0895,"lo2":-89.0444,"dy":0.0017,"dx":0.0017,"nx":28,"ny":28,"refTime":"2024-07-25T03:00:00:Z","depth":0,"parameterNumber":3,"parameterNumberName":"V-component_of_WINDS"},"data":[0,0,0,0,0,0,0,0,0,0,0,0,0,0,0,0,0,0,0,0,0,0,0,0,0,0,0,0,0,0,0,0,0,0,0,0,0,0,0,0,0,0,0,0,0,0,0,0,0,0,0,0,0,0,0,0,0,0,1.0464,1.0463,0,1.0383,1.0382,1.0381,1.0417,1.0419,1.0421,1.0423,1.0334,1.033,1.0326,0,0,0,0,0,0,0,0,0,0,0,0,0,1.0643,1.0639,1.0464,1.0463,1.0462,1.0383,1.0382,1.0381,1.0417,1.0419,1.0422,1.0424,1.0335,1.033,1.0325,0,0,0,0,0,0,0,0,0,0,0,0,0,1.0564,1.0638,1.0464,1.047,1.047,1.0384,1.0382,1.0381,1.0416,1.0419,1.0422,1.0425,1.0337,1.0331,1.0325,1.0225,0,0,1.0305,1.0302,0,0,0,0,0,0,0,0,1.0568,1.0557,1.047,1.047,1.0469,1.0414,1.0413,1.0328,1.0416,1.0436,1.0423,1.0427,1.0358,1.035,1.0328,1.0221,1.0217,1.0305,1.0301,1.0298,1.0296,0,0,0,0,0,0,0,1.0574,1.0561,1.0432,1.0469,1.0468,1.0475,1.0467,1.0397,1.0381,1.0435,1.0437,1.0428,1.0358,1.0334,1.0326,1.0216,1.0305,1.0299,1.0295,1.0293,1.0024,1.0021,0,0,0,0,0,0,1.058,1.0565,1.0434,1.0429,1.0527,1.047,1.0461,1.0428,1.0382,1.0378,1.0425,1.043,1.0343,1.0333,1.0323,1.0203,1.0298,1.0292,1.0289,1.0027,1.0023,1.0019,0,0,0,0,0,0,1.0584,1.0568,1.0437,1.0498,1.0482,1.0463,1.0426,1.0425,1.0401,1.0375,1.0371,1.0404,1.0345,1.0332,1.025,1.0201,1.0289,1.0284,1.0031,1.0026,1.0021,0.9963,0,0,0,0,0,0,1.0589,1.0569,1.0532,1.0497,1.0479,1.0367,1.0423,1.0421,1.0391,1.0396,1.0354,1.035,1.0347,1.0259,1.0243,1.0194,1.0279,1.0035,1.0029,1.0023,0.9969,0.9957,0.9946,0,0,0,0,0,1.0595,1.0517,1.053,1.0514,1.0432,1.0364,1.0353,1.0353,1.0387,1.0349,1.0332,1.0351,1.0209,1.025,1.0233,1.0181,1.0038,1.0031,1.0023,0.9975,0.9959,0.9947,0,0,0,0,0,0,1.0545,1.0513,1.0526,1.0436,1.0403,1.037,1.0322,1.0337,1.0292,1.0298,1.0298,1.0288,1.0203,1.0184,1.023,1.0082,1.0129,1.0117,1.0098,1.0083,1.0071,1.0077,1.0273,0,0,0,0,0,1.0524,1.0473,1.0447,1.0369,1.0352,1.034,1.031,1.0314,1.0278,1.0264,1.0241,1.0204,1.0151,1.0116,1.0066,0.9968,0.9958,0.9923,0.9911,0.9902,0.9891,0.9838,0.9821,0.9995,0.9995,0.9995,0,0,1.0478,1.0455,1.0422,1.0359,1.0333,1.0279,1.0328,1.0268,1.0227,1.0254,1.0175,1.0157,1.0116,1.0026,0.9984,1.0007,0.9842,0.9893,0.9885,0.988,0.9828,0.9812,0.9797,0.999,0.9991,0.9991,0,0,1.0368,1.0345,1.0278,1.0253,1.0215,1.0208,1.0192,1.0158,1.0147,1.0069,1.0088,1.0039,0.9948,0.9918,0.9891,0.9772,0.9787,0.9756,0.9694,0.9641,0.9628,0.9615,0.9572,0.9556,0.9746,0.9745,0.9745,0,1.0315,1.0236,1.0241,1.0181,1.0152,1.0177,1.0108,1.0082,1.0029,1.0007,1.0034,0.9922,0.9896,0.9798,0.977,0.9747,0.9727,0.9759,0.963,0.9617,0.9606,0.9564,0.9548,0.9742,0.9742,0.9743,0.9743,0,1.0173,1.0118,1.0068,1.0019,0.9985,0.992,0.9914,0.9878,0.9885,0.9875,0.9795,0.9765,0.971,0.9687,0.9692,0.959,0.9605,0.9631,0.9677,0.9586,0.9547,0.9531,0.9736,0.9738,0.9739,0.974,0,0,1.0026,0.9983,0.9964,0.9942,0.9904,0.986,0.9796,0.9745,0.9714,0.9677,0.9622,0.9546,0.957,0.9539,0.9541,0.9495,0.9402,0.9526,0.9525,0.9503,0.9287,0.9267,0.9248,0.9413,0.941,0.9408,0.929,0,0.9912,0.9803,0.9807,0.9704,0.9652,0.9676,0.9621,0.959,0.9579,0.9532,0.952,0.9465,0.9502,0.9483,0.9439,0.9422,0.9358,0.9431,0.936,0.9357,0.9368,0.9228,0.9206,0.9096,0.9275,0.9272,0.927,0,0.9764,0.9725,0.9617,0.9587,0.9566,0.9516,0.9469,0.9425,0.939,0.9386,0.9353,0.9362,0.9296,0.9347,0.9255,0.9305,0.9276,0.9264,0.9259,0.9251,0.9307,0.9214,0.9062,0.9044,0.9246,0.9248,0.925,0,0.9666,0.9586,0.9512,0.9493,0.9456,0.942,0.9403,0.9372,0.934,0.9299,0.9279,0.923,0.9202,0.9163,0.9159,0.9196,0.9066,0.9116,0.9058,0.9058,0.9028,0.903,0.8867,0.9012,0.9013,0.9013,0.9013,0,0.9537,0.947,0.9468,0.9422,0.9348,0.9352,0.9278,0.9264,0.9236,0.9187,0.9204,0.9157,0.9155,0.9106,0.9102,0.9026,0.9014,0.9007,0.9006,0.9004,0.9005,0.8984,0.8991,0.9009,0.901,0.901,0.9011,0,0.9414,0.941,0.9331,0.9304,0.9295,0.9241,0.9217,0.9173,0.9165,0.9102,0.9087,0.9073,0.9017,0.901,0.8943,0.894,0.8849,0.8857,0.8861,0.8862,0.8804,0.8809,0.8621,0.8596,0.8759,0.8757,0.8756,0,0.9332,0.9281,0.9249,0.9219,0.92,0.915,0.912,0.9122,0.9089,0.9047,0.9007,0.8954,0.891,0.8819,0.8801,0.8751,0.8757,0.8695,0.8749,0.8749,0.8754,0.8757,0.8751,0.8683,0.8681,0.868,0.8679,0,0.9185,0.9186,0.9142,0.9098,0.9061,0.9026,0.8992,0.8966,0.8964,0.8926,0.887,0.8837,0.877,0.8716,0.8666,0.8646,0.8661,0.8662,0.8646,0.8642,0.8647,0.8643,0.8831,0.8666,0.8667,0.8668,0.8669,0.8669,0.9078,0.9035,0.9006,0.8957,0.8933,0.8902,0.8859,0.8847,0.8801,0.8749,0.8753,0.8691,0.8658,0.8593,0.857,0.852,0.854,0.8517,0.8511,0.8505,0.8499,0.8656,0.8511,0.8512,0.8512,0.8512,0.8512,0,0.8932,0.8915,0.887,0.8824,0.8785,0.8806,0.8771,0.8736,0.8682,0.8651,0.8609,0.8545,0.8493,0.8472,0.8421,0.8385,0.8391,0.8371,0.8373,0.8368,0.8484,0.8503,0.8368,0.8368,0.8368,0.8368,0.8368,0.8368,0.8851,0.8778,0.8776,0.8692,0.8675,0.8616,0.8594,0.8565,0.8541,0.8469,0.8426,0.8415,0.8387,0.8335,0.8287,0.8283,0.8262,0.8239,0.8237,0.8345,0.836,0.8374,0.8391,0.8235,0.8235,0.8126,0.8125,0.8124]}]]